Time,TemperatureF,DewpointF,PressureIn,WindDirection,WindDirectionDegrees,WindSpeedMPH,WindSpeedGustMPH,Humidity,HourlyPrecipIn,Conditions,Clouds,dailyrainin,SoftwareType,DateUTC
2013-11-11 00:22:00,39.9,39.1,30.01,NW,315,0.0,-999.0,97,-99.99,,,0.00,Acu-Link.com,2013-11-11 05:22:00,
2013-11-11 00:37:00,39.5,39.0,30.01,NW,315,0.0,-999.0,98,-99.99,,,0.00,Acu-Link.com,2013-11-11 05:37:00,
2013-11-11 00:52:00,38.8,38.3,30.01,NNW,337,0.0,-999.0,98,-99.99,,,0.00,Acu-Link.com,2013-11-11 05:52:00,
2013-11-11 01:07:00,39.2,38.7,30.01,North,0,0.0,-999.0,98,-99.99,,,0.00,Acu-Link.com,2013-11-11 06:07:00,
2013-11-11 01:22:00,38.3,37.5,30.00,WNW,292,0.0,-999.0,97,-99.99,,,0.00,Acu-Link.com,2013-11-11 06:22:00,
2013-11-11 01:37:00,37.9,37.4,30.01,WNW,292,0.0,-999.0,98,-99.99,,,0.00,Acu-Link.com,2013-11-11 06:37:00,
2013-11-11 01:52:00,37.2,36.7,30.01,NW,315,0.0,-999.0,98,-99.99,,,0.00,Acu-Link.com,2013-11-11 06:52:00,
2013-11-11 02:07:00,37.4,37.1,30.01,WNW,292,0.0,-999.0,99,-99.99,,,0.00,Acu-Link.com,2013-11-11 07:07:00,
2013-11-11 02:22:00,37.0,36.5,30.01,WNW,292,0.0,-999.0,98,-99.99,,,0.00,Acu-Link.com,2013-11-11 07:22:00,
2013-11-11 02:38:00,37.0,36.7,30.01,WNW,292,0.0,-999.0,99,-99.99,,,0.00,Acu-Link.com,2013-11-11 07:38:00,
2013-11-11 02:53:00,36.5,36.2,30.01,West,270,0.0,-999.0,99,-99.99,,,0.00,Acu-Link.com,2013-11-11 07:53:00,
2013-11-11 03:08:00,35.9,35.6,30.01,West,270,0.0,-999.0,99,-99.99,,,0.00,Acu-Link.com,2013-11-11 08:08:00,
2013-11-11 03:23:00,35.8,35.5,30.02,SSW,202,0.0,-999.0,99,-99.99,,,0.00,Acu-Link.com,2013-11-11 08:23:00,
2013-11-11 03:38:00,36.1,35.8,30.02,West,270,0.0,-999.0,99,-99.99,,,0.00,Acu-Link.com,2013-11-11 08:38:00,
2013-11-11 03:53:00,35.4,35.1,30.02,West,270,0.0,-999.0,99,-99.99,,,0.00,Acu-Link.com,2013-11-11 08:53:00,
2013-11-11 04:08:00,35.2,34.9,30.02,SW,225,0.0,-999.0,99,-99.99,,,0.00,Acu-Link.com,2013-11-11 09:08:00,
2013-11-11 04:23:00,35.2,34.9,30.02,South,180,0.0,-999.0,99,-99.99,,,0.00,Acu-Link.com,2013-11-11 09:23:00,
2013-11-11 04:38:00,34.7,34.4,30.03,West,270,0.0,-999.0,99,-99.99,,,0.00,Acu-Link.com,2013-11-11 09:38:00,
2013-11-11 04:54:00,35.2,34.9,30.03,SSW,202,0.0,-999.0,99,-99.99,,,0.00,Acu-Link.com,2013-11-11 09:54:00,
2013-11-11 05:09:00,34.1,33.8,30.03,West,270,0.0,-999.0,99,-99.99,,,0.00,Acu-Link.com,2013-11-11 10:09:00,
2013-11-11 05:24:00,34.1,33.8,30.03,WSW,247,0.0,-999.0,99,-99.99,,,0.00,Acu-Link.com,2013-11-11 10:24:00,
2013-11-11 05:39:00,34.1,33.8,30.05,SW,225,0.0,-999.0,99,-99.99,,,0.00,Acu-Link.com,2013-11-11 10:39:00,
2013-11-11 05:54:00,33.8,33.5,30.05,SE,135,0.0,-999.0,99,-99.99,,,0.00,Acu-Link.com,2013-11-11 10:54:00,
2013-11-11 06:09:00,33.1,32.8,30.05,SW,225,0.0,-999.0,99,-99.99,,,0.00,Acu-Link.com,2013-11-11 11:09:00,
2013-11-11 06:24:00,33.2,32.9,30.06,SSW,202,0.0,-999.0,99,-99.99,,,0.00,Acu-Link.com,2013-11-11 11:24:00,
2013-11-11 06:39:00,32.9,32.7,30.07,SSW,202,0.0,-999.0,99,-99.99,,,0.00,Acu-Link.com,2013-11-11 11:39:00,
2013-11-11 06:54:00,32.9,32.7,30.07,ESE,112,0.0,-999.0,99,-99.99,,,0.00,Acu-Link.com,2013-11-11 11:54:00,
2013-11-11 07:09:00,33.6,33.3,30.08,ESE,112,0.0,-999.0,99,-99.99,,,0.00,Acu-Link.com,2013-11-11 12:09:00,
2013-11-11 07:25:00,32.3,32.1,30.08,SSW,202,0.0,-999.0,99,-99.99,,,0.00,Acu-Link.com,2013-11-11 12:25:00,
2013-11-11 07:40:00,33.2,32.9,30.09,SSW,202,0.0,-999.0,99,-99.99,,,0.00,Acu-Link.com,2013-11-11 12:40:00,
2013-11-11 07:55:00,33.8,33.5,30.09,SW,225,0.0,-999.0,99,-99.99,,,0.00,Acu-Link.com,2013-11-11 12:55:00,
2013-11-11 08:10:00,34.5,34.2,30.09,SW,225,0.0,-999.0,99,-99.99,,,0.00,Acu-Link.com,2013-11-11 13:10:00,
2013-11-11 08:26:00,35.9,35.6,30.10,SSW,202,0.0,-999.0,99,-99.99,,,0.00,Acu-Link.com,2013-11-11 13:26:00,
2013-11-11 08:41:00,38.6,38.1,30.10,SSW,202,0.0,-999.0,98,-99.99,,,0.00,Acu-Link.com,2013-11-11 13:41:00,
2013-11-11 08:56:00,43.1,40.1,30.11,West,270,0.0,-999.0,89,-99.99,,,0.00,Acu-Link.com,2013-11-11 13:56:00,
2013-11-11 09:11:00,47.6,39.0,30.10,WNW,292,2.7,-999.0,72,-99.99,,,0.00,Acu-Link.com,2013-11-11 14:11:00,
2013-11-11 09:26:00,50.0,35.4,30.11,SSW,202,1.7,-999.0,57,-99.99,,,0.00,Acu-Link.com,2013-11-11 14:26:00,
2013-11-11 09:42:00,52.1,34.0,30.11,WNW,292,2.2,-999.0,50,-99.99,,,0.00,Acu-Link.com,2013-11-11 14:42:00,
2013-11-11 09:57:00,53.9,30.1,30.10,West,270,1.1,-999.0,40,-99.99,,,0.00,Acu-Link.com,2013-11-11 14:57:00,
2013-11-11 10:12:00,55.6,29.7,30.10,West,270,2.2,-999.0,37,-99.99,,,0.00,Acu-Link.com,2013-11-11 15:12:00,
2013-11-11 10:27:00,56.6,30.6,30.10,South,180,2.7,-999.0,37,-99.99,,,0.00,Acu-Link.com,2013-11-11 15:27:00,
2013-11-11 10:42:00,57.2,29.1,30.10,NNE,22,2.7,-999.0,34,-99.99,,,0.00,Acu-Link.com,2013-11-11 15:42:00,
2013-11-11 10:57:00,58.1,29.2,30.09,East,90,2.7,-999.0,33,-99.99,,,0.00,Acu-Link.com,2013-11-11 15:57:00,
2013-11-11 11:12:00,59.7,29.8,30.09,WNW,292,0.0,-999.0,32,-99.99,,,0.00,Acu-Link.com,2013-11-11 16:12:00,
2013-11-11 11:27:00,60.1,30.1,30.08,ESE,112,3.2,-999.0,32,-99.99,,,0.00,Acu-Link.com,2013-11-11 16:27:00,
2013-11-11 11:42:00,61.3,29.6,30.07,NNE,22,3.2,-999.0,30,-99.99,,,0.00,Acu-Link.com,2013-11-11 16:42:00,
2013-11-11 11:57:00,61.7,30.0,30.06,ENE,67,4.2,-999.0,30,-99.99,,,0.00,Acu-Link.com,2013-11-11 16:57:00,
2013-11-11 12:13:00,62.6,29.0,30.05,NNE,22,3.7,-999.0,28,-99.99,,,0.00,Acu-Link.com,2013-11-11 17:13:00,
2013-11-11 12:28:00,61.9,29.3,30.05,NNE,22,2.7,-999.0,29,-99.99,,,0.00,Acu-Link.com,2013-11-11 17:28:00,
2013-11-11 12:43:00,63.3,30.5,30.04,WSW,247,2.2,-999.0,29,-99.99,,,0.00,Acu-Link.com,2013-11-11 17:43:00,
2013-11-11 12:58:00,64.7,30.8,30.03,North,0,0.0,-999.0,28,-99.99,,,0.00,Acu-Link.com,2013-11-11 17:58:00,
2013-11-11 13:13:00,66.0,32.0,30.02,WSW,247,2.7,-999.0,28,-99.99,,,0.00,Acu-Link.com,2013-11-11 18:13:00,
2013-11-11 13:28:00,61.9,30.9,30.01,WSW,247,4.2,-999.0,31,-99.99,,,0.00,Acu-Link.com,2013-11-11 18:28:00,
2013-11-11 13:43:00,64.7,31.7,30.00,WNW,292,3.2,-999.0,29,-99.99,,,0.00,Acu-Link.com,2013-11-11 18:43:00,
2013-11-11 13:58:00,64.9,31.9,30.00,North,0,2.7,-999.0,29,-99.99,,,0.00,Acu-Link.com,2013-11-11 18:58:00,
2013-11-11 14:13:00,64.7,31.7,29.99,ESE,112,2.2,-999.0,29,-99.99,,,0.00,Acu-Link.com,2013-11-11 19:13:00,
2013-11-11 14:29:00,65.5,31.5,29.99,NNE,22,1.7,-999.0,28,-99.99,,,0.00,Acu-Link.com,2013-11-11 19:29:00,
2013-11-11 14:44:00,65.8,31.8,29.98,ESE,112,2.2,-999.0,28,-99.99,,,0.00,Acu-Link.com,2013-11-11 19:44:00,
2013-11-11 14:59:00,63.3,32.9,29.98,SSW,202,2.2,-999.0,32,-99.99,,,0.00,Acu-Link.com,2013-11-11 19:59:00,
2013-11-11 15:14:00,64.0,31.9,29.98,NNE,22,2.2,-999.0,30,-99.99,,,0.00,Acu-Link.com,2013-11-11 20:14:00,
2013-11-11 15:29:00,63.3,30.5,29.97,WNW,292,1.7,-999.0,29,-99.99,,,0.00,Acu-Link.com,2013-11-11 20:29:00,
2013-11-11 15:44:00,64.2,32.9,29.97,NW,315,0.0,-999.0,31,-99.99,,,0.00,Acu-Link.com,2013-11-11 20:44:00,
2013-11-11 15:59:00,62.0,34.7,29.97,NW,315,0.0,-999.0,36,-99.99,,,0.00,Acu-Link.com,2013-11-11 20:59:00,
2013-11-11 16:14:00,65.5,32.4,29.97,SW,225,0.0,-999.0,29,-99.99,,,0.00,Acu-Link.com,2013-11-11 21:14:00,
2013-11-11 16:29:00,64.9,35.1,29.96,WSW,247,0.0,-999.0,33,-99.99,,,0.00,Acu-Link.com,2013-11-11 21:29:00,
2013-11-11 16:45:00,61.7,35.2,29.96,WSW,247,0.0,-999.0,37,-99.99,,,0.00,Acu-Link.com,2013-11-11 21:45:00,
2013-11-11 17:00:00,59.2,35.5,29.97,WSW,247,0.0,-999.0,41,-99.99,,,0.00,Acu-Link.com,2013-11-11 22:00:00,
2013-11-11 17:15:00,56.6,37.1,29.97,WSW,247,0.0,-999.0,48,-99.99,,,0.00,Acu-Link.com,2013-11-11 22:15:00,
2013-11-11 17:30:00,55.4,37.6,29.97,SW,225,0.0,-999.0,51,-99.99,,,0.00,Acu-Link.com,2013-11-11 22:30:00,
2013-11-11 17:45:00,53.8,36.1,29.98,WNW,292,0.0,-999.0,51,-99.99,,,0.00,Acu-Link.com,2013-11-11 22:45:00,
2013-11-11 18:00:00,52.1,35.5,29.98,WSW,247,0.0,-999.0,53,-99.99,,,0.00,Acu-Link.com,2013-11-11 23:00:00,
2013-11-11 18:15:00,50.5,35.8,29.98,WNW,292,0.0,-999.0,57,-99.99,,,0.00,Acu-Link.com,2013-11-11 23:15:00,
2013-11-11 18:30:00,49.1,36.2,29.99,WSW,247,0.0,-999.0,61,-99.99,,,0.00,Acu-Link.com,2013-11-11 23:30:00,
2013-11-11 18:45:00,48.0,36.0,29.99,WNW,292,0.0,-999.0,63,-99.99,,,0.00,Acu-Link.com,2013-11-11 23:45:00,
2013-11-11 19:01:00,46.7,36.0,29.99,WSW,247,0.0,-999.0,66,-99.99,,,0.00,Acu-Link.com,2013-11-12 00:01:00,
2013-11-11 19:16:00,45.5,35.6,29.99,WNW,292,0.0,-999.0,68,-99.99,,,0.00,Acu-Link.com,2013-11-12 00:16:00,
2013-11-11 19:31:00,45.1,35.5,29.98,WNW,292,0.0,-999.0,69,-99.99,,,0.00,Acu-Link.com,2013-11-12 00:31:00,
2013-11-11 19:46:00,44.0,35.9,29.98,WNW,292,0.0,-999.0,73,-99.99,,,0.00,Acu-Link.com,2013-11-12 00:46:00,
2013-11-11 20:01:00,43.5,36.1,29.97,WNW,292,0.0,-999.0,75,-99.99,,,0.00,Acu-Link.com,2013-11-12 01:01:00,
2013-11-11 20:16:00,42.6,36.2,29.98,West,270,0.0,-999.0,78,-99.99,,,0.00,Acu-Link.com,2013-11-12 01:16:00,
2013-11-11 20:31:00,42.6,36.6,29.98,NW,315,0.0,-999.0,79,-99.99,,,0.00,Acu-Link.com,2013-11-12 01:31:00,
2013-11-11 20:46:00,41.3,36.5,29.97,South,180,0.0,-999.0,83,-99.99,,,0.00,Acu-Link.com,2013-11-12 01:46:00,
2013-11-11 21:01:00,41.2,37.0,29.98,West,270,0.0,-999.0,85,-99.99,,,0.00,Acu-Link.com,2013-11-12 02:01:00,
2013-11-11 21:17:00,41.0,36.8,29.98,WNW,292,0.0,-999.0,85,-99.99,,,0.00,Acu-Link.com,2013-11-12 02:17:00,
2013-11-11 21:32:00,40.3,36.7,29.99,WNW,292,0.0,-999.0,87,-99.99,,,0.00,Acu-Link.com,2013-11-12 02:32:00,
2013-11-11 21:47:00,40.1,36.8,29.99,ENE,67,0.0,-999.0,88,-99.99,,,0.00,Acu-Link.com,2013-11-12 02:47:00,
2013-11-11 22:02:00,39.0,36.9,29.99,WNW,292,0.0,-999.0,92,-99.99,,,0.00,Acu-Link.com,2013-11-12 03:02:00,
2013-11-11 22:17:00,39.4,37.0,29.99,NW,315,0.0,-999.0,91,-99.99,,,0.00,Acu-Link.com,2013-11-12 03:17:00,
2013-11-11 22:32:00,38.8,37.0,29.99,NW,315,0.0,-999.0,93,-99.99,,,0.00,Acu-Link.com,2013-11-12 03:32:00,
2013-11-11 22:47:00,38.5,37.5,29.99,NNW,337,0.0,-999.0,96,-99.99,,,0.00,Acu-Link.com,2013-11-12 03:47:00,
2013-11-11 23:02:00,39.2,37.6,29.98,NW,315,0.0,-999.0,94,-99.99,,,0.00,Acu-Link.com,2013-11-12 04:02:00,
2013-11-11 23:17:00,39.2,38.2,29.98,West,270,0.0,-999.0,96,-99.99,,,0.00,Acu-Link.com,2013-11-12 04:17:00,
2013-11-11 23:32:00,39.0,37.7,29.97,NW,315,0.0,-999.0,95,-99.99,,,0.00,Acu-Link.com,2013-11-12 04:32:00,
2013-11-11 23:48:00,39.5,38.5,29.97,SW,225,0.0,-999.0,96,-99.99,,,0.00,Acu-Link.com,2013-11-12 04:48:00,